CST,Max TemperatureF,Mean TemperatureF,Min TemperatureF,Max Dew PointF,MeanDew PointF,Min DewpointF,Max Humidity, Mean Humidity, Min Humidity, Max Sea Level PressureIn, Mean Sea Level PressureIn, Min Sea Level PressureIn, Max VisibilityMiles, Mean VisibilityMiles, Min VisibilityMiles, Max Wind SpeedMPH, Mean Wind SpeedMPH, Max Gust SpeedMPH,PrecipitationIn, CloudCover, Events, WindDirDegrees
2011-11-1,53,46,39,36,30,21,70,49,32,30.02,29.88,29.78,10,10,10,20,8,25,0.00,3,,21
2011-11-2,46,40,33,28,24,19,65,50,34,30.29,30.22,30.11,10,10,10,22,12,29,0.00,2,,8
2011-11-3,53,38,23,21,14,7,80,47,15,30.32,30.25,30.18,10,10,10,9,4,,0.00,0,,248
2011-11-4,55,42,28,21,16,9,64,39,15,30.17,30.07,29.93,10,10,5,23,11,33,0.00,0,,199
2011-11-5,59,49,39,37,32,28,81,55,31,29.90,29.68,29.50,10,10,10,23,16,38,0.00,0,,192
2011-11-6,50,44,39,41,29,12,76,54,29,29.88,29.62,29.45,10,10,10,22,13,33,0.00,3,Rain,245
2011-11-7,48,37,26,21,17,12,64,44,30,30.21,30.12,29.96,10,10,10,13,8,20,0.00,0,,297
2011-11-8,48,37,26,27,21,16,80,56,27,30.21,30.17,30.13,10,10,10,7,1,,0.00,2,,89
2011-11-9,46,36,26,23,19,14,74,55,29,30.15,30.10,30.08,10,10,10,25,8,31,0.00,2,,345
2011-11-10,39,32,26,21,19,16,74,58,42,30.14,30.07,29.95,10,10,10,17,12,25,0.00,2,,335
2011-11-11,59,44,30,19,15,10,60,35,17,29.85,29.64,29.55,10,10,10,12,8,,0.00,0,,247
2011-11-12,60,48,35,32,18,10,57,34,14,29.53,29.35,29.17,10,10,10,16,8,25,0.00,0,,216
2011-11-13,48,42,35,28,25,19,75,52,37,29.37,29.28,29.16,10,10,5,17,8,24,0.00,5,,317
2011-11-14,51,42,33,27,19,10,61,43,19,29.56,29.45,29.39,10,10,10,21,10,30,0.00,0,,284
2011-11-15,44,36,28,27,18,10,69,50,29,29.93,29.67,29.49,10,10,10,25,7,34,0.00,2,,323
2011-11-16,33,27,21,16,12,9,68,54,38,30.16,30.06,29.97,10,10,10,21,11,29,0.00,3,,312
2011-11-17,32,22,12,9,7,5,79,57,34,30.18,30.08,29.78,10,10,10,22,5,25,0.00,0,,216
2011-11-18,44,37,30,21,19,12,64,49,36,29.69,29.59,29.55,10,10,10,17,6,,0.00,1,,246
2011-11-19,28,22,15,19,15,9,93,74,64,30.13,29.88,29.76,10,7,0,21,16,29,0.02,8,Snow,18
2011-11-20,12,6,1,7,3,-2,85,79,67,30.38,30.29,30.22,10,10,7,13,7,18,0.00,1,Snow,342
2011-11-21,35,22,10,28,19,7,92,80,65,30.24,30.17,30.11,10,10,5,12,8,,0.00,3,,185
2011-11-22,41,37,33,34,31,28,87,82,70,30.13,30.05,30.00,10,5,3,8,6,,0.00,7,,189
2011-11-23,57,42,28,37,30,25,93,73,38,30.05,29.99,29.89,10,6,2,12,6,,0.00,0,,213
2011-11-24,60,48,35,36,31,28,75,58,34,29.87,29.73,29.63,10,10,7,10,8,,0.00,0,,210
2011-11-25,46,39,32,36,32,27,87,76,53,29.66,29.61,29.57,10,10,10,9,4,,0.00,0,,277
2011-11-26,37,35,33,34,29,23,93,77,60,30.18,29.94,29.65,10,10,5,32,18,41,0.00,8,,355
2011-11-27,33,28,24,23,20,18,80,68,60,30.26,30.21,30.14,10,10,10,25,16,36,0.00,5,,7
2011-11-28,48,34,21,28,20,14,86,62,27,30.21,30.05,29.97,10,10,10,16,9,21,0.00,0,,226
2011-11-29,39,29,19,25,15,5,86,63,24,30.38,30.29,30.11,10,10,10,10,6,,0.00,0,,303
2011-11-30,39,32,26,28,16,7,81,50,42,30.03,29.91,29.84,10,10,3,10,6,,0.00,3,,252